Wind_Speed
4 5 7 10 13 13 13 16 19 23 27 29 25 27 28 29 31 31 29 28 25 24 22 24 24 23 23 28 29 28 25 27
4 8 10 14 17 13 12 16 19 24 28 28 28 32 29 28 29 31 31 27 23 24 22 23 23 22 24 27 28 29 27 31
7 11 10 18 18 11 10 14 18 23 25 24 27 30 27 25 29 28 29 31 23 23 25 23 22 23 24 24 27 32 22 27
9 12 12 20 17 9 11 14 18 24 22 23 28 28 28 24 32 30 30 33 27 21 25 26 22 23 23 22 26 31 22 26
9 10 14 19 11 7 10 14 20 21 20 24 26 26 25 29 30 28 29 33 27 23 23 25 25 23 20 20 31 27 21 20
8 8 13 12 6 8 11 15 18 19 19 22 24 25 26 27 27 29 32 29 25 25 24 24 26 24 20 23 32 21 21 16
5 8 12 5 6 7 11 14 15 19 20 20 23 24 25 28 31 30 28 27 26 24 24 23 25 23 24 29 26 20 20 21
5 9 9 2 4 7 10 11 16 16 18 19 20 22 24 29 27 26 28 27 27 26 24 25 25 24 26 34 22 21 21 21
5 7 3 2 3 6 9 10 15 14 15 17 19 22 26 26 23 24 26 27 26 25 23 24 26 23 29 32 21 21 22 21
7 7 4 3 2 6 10 9 11 12 14 15 18 24 26 24 23 25 25 26 26 25 22 22 24 23 27 26 25 23 23 21
8 4 6 3 2 6 9 7 10 11 13 14 17 24 25 23 23 25 26 26 26 25 20 24 23 27 28 23 25 23 23 23
6 5 6 2 3 7 8 6 10 12 12 11 17 23 24 22 23 24 25 25 25 25 19 28 24 26 29 25 24 23 24 23
3 10 7 3 3 6 8 5 10 12 11 9 17 22 23 22 22 24 23 24 26 25 22 22 24 24 28 28 26 23 23 23
7 8 6 2 3 5 6 4 10 11 10 9 17 21 22 22 22 23 25 24 25 26 25 21 25 25 30 29 25 23 23 22
6 7 6 3 1 4 4 6 9 11 7 10 16 20 20 20 21 24 25 24 24 26 26 24 22 24 31 31 26 24 23 23
7 7 8 4 1 2 2 6 9 10 6 11 14 18 19 19 21 23 25 25 24 25 26 25 25 24 31 31 25 25 25 25
7 10 9 6 2 1 1 6 9 10 7 10 13 17 20 19 20 22 25 27 25 27 28 26 26 27 30 29 25 25 25 25
8 13 11 8 3 2 1 6 8 8 7 10 14 16 19 19 21 22 23 26 25 27 29 26 25 28 29 30 25 25 25 26
13 14 11 9 5 5 3 6 9 7 7 10 14 15 16 19 20 22 23 25 26 26 28 26 23 26 29 30 26 25 24 25
Wind_Direction
341 354 338 331 333 336 348 360 2 4 5 6 14 10 9 12 16 15 12 7 359 353 350 349 348 348 346 349 349 351 342 331
333 352 358 4 351 334 353 360 4 4 5 8 10 3 5 9 10 14 13 5 2 354 351 349 350 350 350 351 350 352 347 344
335 345 9 1 356 357 5 5 8 8 6 11 5 0 4 3 2 4 6 8 2 352 350 346 350 348 352 351 353 350 345 349
313 339 355 355 360 20 13 14 12 7 6 8 5 7 4 356 358 358 357 357 359 353 352 355 350 350 353 357 355 353 339 346
301 342 350 355 13 35 23 15 12 9 10 10 6 1 354 356 357 355 355 356 2 2 1 356 357 358 353 4 353 355 357 346
302 339 351 2 45 32 21 14 12 12 18 8 4 359 358 359 2 358 357 3 7 6 5 1 1 0 5 4 354 5 360 346
341 336 358 39 48 28 14 13 13 21 13 5 360 0 4 4 359 2 2 4 5 8 7 7 4 1 5 358 2 5 352 351
320 325 345 74 42 21 12 9 17 18 11 4 5 7 6 1 4 6 5 3 3 3 4 7 7 359 2 360 8 5 355 351
285 309 297 152 43 16 6 5 15 10 5 5 10 9 4 9 10 9 9 7 6 3 5 6 4 358 3 1 3 5 358 356
274 316 193 167 45 12 359 360 4 2 2 6 11 9 10 11 11 11 8 8 9 8 4 360 6 12 3 4 1 1 354 357
280 300 172 159 48 10 358 353 357 353 358 6 10 11 13 14 13 10 5 7 10 12 5 8 7 13 8 3 2 359 1 358
285 173 167 145 52 7 0 1 1 356 354 4 9 11 12 13 13 8 7 7 11 13 5 14 14 11 12 5 6 358 1 2
259 169 165 145 40 360 1 19 2 3 356 5 13 11 14 16 13 12 10 10 14 15 13 11 21 11 8 3 2 6 6 7
150 163 176 160 38 355 8 21 2 4 359 13 13 13 16 14 14 12 11 12 13 16 21 12 18 13 5 5 7 7 10 10
178 187 194 182 24 355 34 15 11 11 15 17 15 14 12 13 14 14 14 14 16 18 22 20 20 12 9 10 11 13 8 11
187 196 205 185 238 7 36 19 16 18 26 21 17 15 14 15 17 18 20 20 23 24 23 26 26 14 10 10 10 13 13 11
188 197 198 191 194 5 18 25 26 18 42 25 16 13 15 18 18 20 20 21 24 26 24 21 20 17 12 14 17 15 15 12
185 196 192 185 177 188 67 37 27 30 46 30 20 15 19 22 21 22 21 22 23 24 23 19 16 17 12 14 18 21 19 17
187 191 184 173 181 172 94 48 28 48 49 31 19 17 22 25 21 22 23 25 25 23 22 19 15 15 14 14 15 18 20 19
Height
905 903 901 898 896 893 891 888 885 882 879 876 871 867 862 858 853 848 842 837 832 828 822 817 812 806 799 793 788 783 777 768
904 903 900 898 895 893 891 888 885 882 878 873 869 866 861 857 854 849 843 838 834 829 824 818 812 807 800 794 787 780 775 767
904 902 900 898 894 892 891 889 886 883 879 875 872 866 862 858 854 849 844 839 834 829 824 818 813 808 802 795 788 780 777 771
905 902 901 897 894 893 891 890 887 883 880 876 871 867 862 857 852 847 843 839 833 829 824 819 813 809 803 798 792 786 777 770
903 902 899 896 894 894 892 890 887 884 880 876 872 868 863 859 853 849 844 839 833 829 824 819 814 809 805 801 796 790 785 778
903 901 898 897 895 894 893 891 888 884 880 877 874 869 865 860 854 849 844 839 834 830 825 820 814 809 806 803 797 791 787 786
901 899 897 896 895 894 893 890 888 883 881 879 875 871 865 859 854 849 844 840 835 830 826 821 816 811 807 803 798 793 789 786
900 897 896 896 895 894 893 890 887 884 882 879 876 872 867 861 856 851 846 841 836 831 826 822 817 811 806 802 799 794 791 787
897 895 895 895 894 894 892 889 886 885 883 880 877 872 867 862 858 854 849 844 838 833 827 823 818 813 808 802 799 795 791 788
895 894 894 895 894 893 891 888 887 886 884 880 877 872 867 863 859 855 850 845 840 835 829 825 820 815 811 804 799 794 791 788
893 892 892 894 893 892 890 888 887 886 883 880 877 873 868 864 860 856 851 846 841 836 831 827 821 818 813 807 801 796 792 788
890 890 892 893 893 892 890 888 888 886 883 880 877 873 869 865 861 856 852 847 842 837 833 829 823 819 815 810 804 799 793 789
888 889 891 892 892 892 890 889 888 885 883 880 878 874 870 865 861 857 853 848 843 838 834 831 826 821 815 810 805 801 797 792
888 889 891 891 891 891 889 889 888 885 882 881 878 874 870 866 862 858 853 849 844 839 835 832 828 823 817 812 807 802 799 796
888 889 889 890 891 890 890 890 888 885 883 881 878 875 872 868 864 859 854 850 846 841 837 833 830 825 820 815 809 805 801 798
886 887 888 890 891 890 890 890 887 885 883 882 880 877 874 870 866 861 856 852 847 843 839 835 832 827 823 818 812 807 803 799
883 884 886 889 889 889 890 889 887 886 884 883 881 878 875 871 867 863 858 854 849 845 841 837 834 829 826 821 816 811 806 802
880 881 884 887 888 890 890 889 888 886 886 885 881 878 875 872 869 865 860 856 852 847 843 839 836 832 828 823 818 814 810 805
877 879 883 886 888 889 889 889 888 887 886 884 882 879 876 874 870 867 863 858 854 851 847 843 839 835 831 826 820 817 813 809